[[{"header":{"parameterUnit":"m.s-1","parameterCategory":1,"la1":30.2991,"la2":30.254,"lo1":-89.0895,"lo2":-89.0444,"dy":0.0017,"dx":0.0017,"nx":28,"ny":28,"refTime":"2024-03-30T09:00:00:Z","depth":0,"parameterNumber":2,"parameterNumberName":"U-component_of_WINDS"},"data":[0,0,0,0,0,0,0,0,0,0,0,0,0,0,0,0,0,0,0,0,0,0,0,0,0,0,0,0,0,0,0,0,0,0,0,0,0,0,0,0,0,0,0,0,0,0,0,0,0,0,0,0,0,0,0,0,0,0,-0.1215,-0.1215,0,-0.1197,-0.1196,-0.1196,-0.1195,-0.1195,-0.1195,-0.1195,-0.1177,-0.1177,-0.1176,0,0,0,0,0,0,0,0,0,0,0,0,0,-0.125,-0.1249,-0.1215,-0.1215,-0.1215,-0.1197,-0.1196,-0.1196,-0.1195,-0.1195,-0.1195,-0.1195,-0.1177,-0.1177,-0.1176,0,0,0,0,0,0,0,0,0,0,0,0,0,-0.1233,-0.1249,-0.1215,-0.1212,-0.1211,-0.1197,-0.1196,-0.1196,-0.1195,-0.1195,-0.1195,-0.1195,-0.1178,-0.1177,-0.1176,-0.1164,0,0,-0.1173,-0.1172,0,0,0,0,0,0,0,0,-0.1234,-0.1232,-0.1212,-0.1212,-0.1211,-0.1198,-0.1202,-0.1185,-0.1194,-0.1201,-0.1195,-0.1196,-0.1184,-0.1183,-0.1178,-0.1163,-0.1162,-0.1173,-0.1172,-0.1172,-0.1171,0,0,0,0,0,0,0,-0.1235,-0.1233,-0.1208,-0.1212,-0.1211,-0.1211,-0.1209,-0.1199,-0.1191,-0.12,-0.12,-0.1198,-0.1184,-0.1179,-0.1178,-0.1162,-0.1173,-0.1172,-0.1171,-0.1171,-0.1135,-0.1135,0,0,0,0,0,0,-0.1237,-0.1234,-0.1208,-0.1207,-0.1224,-0.121,-0.1208,-0.1202,-0.1191,-0.119,-0.1198,-0.1198,-0.1181,-0.1179,-0.1177,-0.1162,-0.1172,-0.1171,-0.117,-0.1135,-0.1135,-0.1135,0,0,0,0,0,0,-0.1238,-0.1235,-0.1209,-0.122,-0.1217,-0.1209,-0.1203,-0.1202,-0.1197,-0.1189,-0.1188,-0.1195,-0.1181,-0.1179,-0.1167,-0.1162,-0.117,-0.1169,-0.1136,-0.1135,-0.1135,-0.1133,0,0,0,0,0,0,-0.1239,-0.1235,-0.123,-0.122,-0.1217,-0.1199,-0.1202,-0.1201,-0.1195,-0.1196,-0.1186,-0.1185,-0.1181,-0.1168,-0.1166,-0.1161,-0.1169,-0.1136,-0.1136,-0.1135,-0.1133,-0.1132,-0.1131,0,0,0,0,0,-0.124,-0.1231,-0.123,-0.1227,-0.1211,-0.1199,-0.1197,-0.1193,-0.1195,-0.119,-0.1185,-0.1185,-0.1163,-0.1167,-0.1165,-0.1159,-0.1137,-0.1136,-0.1135,-0.1134,-0.1132,-0.1131,0,0,0,0,0,0,-0.1241,-0.123,-0.1229,-0.1216,-0.1208,-0.1199,-0.1193,-0.1191,-0.1183,-0.1184,-0.1179,-0.1177,-0.1165,-0.1161,-0.1166,-0.1146,-0.115,-0.1149,-0.115,-0.1149,-0.1148,-0.1149,-0.1168,0,0,0,0,0,-0.124,-0.1231,-0.1221,-0.1211,-0.1207,-0.1201,-0.1195,-0.1193,-0.1185,-0.1182,-0.1175,-0.1168,-0.1159,-0.1153,-0.1145,-0.1132,-0.113,-0.1127,-0.1126,-0.1125,-0.1124,-0.1117,-0.1115,-0.1132,-0.1132,-0.1132,0,0,-0.1238,-0.123,-0.1225,-0.1211,-0.1205,-0.1196,-0.1198,-0.1189,-0.1182,-0.118,-0.1169,-0.1164,-0.1155,-0.1143,-0.1137,-0.1138,-0.1119,-0.1124,-0.1124,-0.1123,-0.1116,-0.1114,-0.1113,-0.1132,-0.1132,-0.1132,0,0,-0.1228,-0.1222,-0.1212,-0.1206,-0.1196,-0.1191,-0.1189,-0.1179,-0.1176,-0.1164,-0.1162,-0.1154,-0.1139,-0.1133,-0.1128,-0.1115,-0.1115,-0.1112,-0.1107,-0.11,-0.1099,-0.1098,-0.1093,-0.1092,-0.1111,-0.1111,-0.1111,0,-0.1227,-0.1213,-0.1208,-0.1198,-0.1192,-0.1189,-0.118,-0.1174,-0.1162,-0.1158,-0.116,-0.114,-0.1134,-0.112,-0.1117,-0.1113,-0.111,-0.1114,-0.1099,-0.1098,-0.1097,-0.1093,-0.1091,-0.1111,-0.1111,-0.1111,-0.1111,0,-0.1211,-0.1201,-0.1195,-0.1183,-0.1176,-0.1167,-0.116,-0.1154,-0.1151,-0.1147,-0.1134,-0.1127,-0.1116,-0.1113,-0.1111,-0.1098,-0.1099,-0.11,-0.1104,-0.1095,-0.1091,-0.1089,-0.1111,-0.1111,-0.1111,-0.1111,0,0,-0.1203,-0.1188,-0.1185,-0.118,-0.1168,-0.1161,-0.1151,-0.114,-0.1135,-0.1126,-0.1118,-0.1105,-0.1105,-0.11,-0.1097,-0.109,-0.108,-0.1092,-0.1092,-0.109,-0.1066,-0.1066,-0.1064,-0.108,-0.1079,-0.1079,-0.1067,0,-0.1193,-0.1175,-0.117,-0.1155,-0.1146,-0.1142,-0.1134,-0.1126,-0.1121,-0.1112,-0.1107,-0.1098,-0.1099,-0.1095,-0.1089,-0.1083,-0.1076,-0.1084,-0.1072,-0.1072,-0.1075,-0.1061,-0.1061,-0.105,-0.1065,-0.1065,-0.1064,0,-0.1179,-0.1169,-0.1153,-0.1142,-0.1138,-0.1131,-0.112,-0.1112,-0.1103,-0.11,-0.1092,-0.109,-0.1079,-0.1083,-0.1068,-0.1074,-0.1069,-0.1065,-0.1064,-0.1064,-0.1068,-0.106,-0.1046,-0.1045,-0.1062,-0.1062,-0.1062,0,-0.1175,-0.1158,-0.1146,-0.1141,-0.1128,-0.1123,-0.1117,-0.1108,-0.1102,-0.1093,-0.1088,-0.1078,-0.1073,-0.1065,-0.1059,-0.1063,-0.1045,-0.1049,-0.1042,-0.1042,-0.1039,-0.104,-0.1024,-0.1035,-0.1035,-0.1035,-0.1035,0,-0.1164,-0.1155,-0.1144,-0.1137,-0.1126,-0.112,-0.1109,-0.1103,-0.1095,-0.1086,-0.1083,-0.1075,-0.1068,-0.1059,-0.1055,-0.1043,-0.1041,-0.1038,-0.1037,-0.1038,-0.1039,-0.1035,-0.1036,-0.1035,-0.1035,-0.1035,-0.1035,0,-0.1158,-0.1151,-0.1138,-0.1126,-0.1123,-0.1115,-0.1105,-0.1098,-0.1092,-0.1081,-0.1078,-0.107,-0.1059,-0.1053,-0.1039,-0.1036,-0.1024,-0.1023,-0.1027,-0.1026,-0.1021,-0.1021,-0.1003,-0.1,-0.1013,-0.1013,-0.1012,0,-0.1152,-0.1144,-0.1131,-0.1125,-0.1119,-0.111,-0.1103,-0.1096,-0.1089,-0.1078,-0.1072,-0.1061,-0.1052,-0.1035,-0.1027,-0.1017,-0.1016,-0.101,-0.1015,-0.1016,-0.1016,-0.1017,-0.1016,-0.101,-0.101,-0.101,-0.1009,0,-0.1142,-0.1138,-0.1129,-0.1118,-0.1109,-0.1101,-0.1092,-0.1087,-0.1078,-0.1071,-0.106,-0.1053,-0.1039,-0.1028,-0.1016,-0.1011,-0.1009,-0.1008,-0.1006,-0.1008,-0.101,-0.1009,-0.1025,-0.1009,-0.1009,-0.1009,-0.1009,-0.1009,-0.1136,-0.1129,-0.1118,-0.1107,-0.11,-0.1091,-0.1084,-0.1077,-0.1067,-0.1055,-0.1051,-0.104,-0.103,-0.1014,-0.1008,-0.0999,-0.1,-0.0997,-0.0996,-0.0996,-0.0996,-0.1011,-0.0997,-0.0997,-0.0997,-0.0997,-0.0997,0,-0.1126,-0.1119,-0.1109,-0.1096,-0.1087,-0.1085,-0.1075,-0.1068,-0.1057,-0.1048,-0.1039,-0.1026,-0.1015,-0.1006,-0.0995,-0.0989,-0.0988,-0.0987,-0.0987,-0.0986,-0.0996,-0.0998,-0.0988,-0.0988,-0.0988,-0.0988,-0.0988,-0.0988,-0.112,-0.1107,-0.1102,-0.1086,-0.1079,-0.1067,-0.1061,-0.1053,-0.1046,-0.1031,-0.1022,-0.1016,-0.1007,-0.0995,-0.0985,-0.0982,-0.0978,-0.0977,-0.0975,-0.0984,-0.0985,-0.0986,-0.0989,-0.0976,-0.0976,-0.0966,-0.0966,-0.0966]},{"header":{"parameterUnit":"m.s-1","parameterCategory":1,"la1":30.2991,"la2":30.254,"lo1":-89.0895,"lo2":-89.0444,"dy":0.0017,"dx":0.0017,"nx":28,"ny":28,"refTime":"2024-03-30T09:00:00:Z","depth":0,"parameterNumber":3,"parameterNumberName":"V-component_of_WINDS"},"data":[0,0,0,0,0,0,0,0,0,0,0,0,0,0,0,0,0,0,0,0,0,0,0,0,0,0,0,0,0,0,0,0,0,0,0,0,0,0,0,0,0,0,0,0,0,0,0,0,0,0,0,0,0,0,0,0,0,0,2.8212,2.8213,0,2.8357,2.8358,2.836,2.8362,2.836,2.8359,2.8357,2.8502,2.8507,2.8513,0,0,0,0,0,0,0,0,0,0,0,0,0,2.7932,2.7937,2.8211,2.8213,2.8215,2.8356,2.8358,2.836,2.8363,2.836,2.8358,2.8356,2.85,2.8507,2.8513,0,0,0,0,0,0,0,0,0,0,0,0,0,2.8063,2.7939,2.8211,2.8233,2.8237,2.8356,2.8358,2.8361,2.8363,2.836,2.8358,2.8355,2.8498,2.8506,2.8514,2.862,0,0,2.854,2.8543,0,0,0,0,0,0,0,0,2.8055,2.8073,2.8228,2.8232,2.8236,2.8339,2.8313,2.8448,2.8364,2.8315,2.8357,2.8354,2.845,2.8462,2.8495,2.8627,2.8633,2.8541,2.8546,2.8549,2.8552,0,0,0,0,0,0,0,2.8046,2.8067,2.8269,2.823,2.8235,2.8234,2.825,2.8339,2.8396,2.8319,2.832,2.8337,2.8451,2.8487,2.8498,2.8635,2.854,2.8548,2.8553,2.8556,2.8859,2.8861,0,0,0,0,0,0,2.8033,2.8059,2.8264,2.8273,2.8137,2.8242,2.8259,2.8308,2.8395,2.8405,2.8339,2.8336,2.8474,2.8489,2.8503,2.8631,2.8549,2.8557,2.8562,2.8856,2.8859,2.8863,0,0,0,0,0,0,2.8027,2.8052,2.8258,2.8166,2.8193,2.825,2.8305,2.8313,2.8348,2.841,2.842,2.8365,2.8472,2.8492,2.8591,2.8636,2.8561,2.8568,2.8852,2.8857,2.8861,2.8889,0,0,0,0,0,0,2.8019,2.8049,2.8091,2.8167,2.8198,2.8345,2.8308,2.8317,2.8363,2.8361,2.8437,2.8447,2.8472,2.8578,2.8599,2.8646,2.8575,2.8848,2.8854,2.8859,2.8884,2.8894,2.8902,0,0,0,0,0,2.8009,2.8093,2.8094,2.8118,2.8252,2.8348,2.8365,2.8392,2.8367,2.8409,2.8448,2.8445,2.8628,2.8588,2.8612,2.8662,2.8845,2.8852,2.8859,2.888,2.8892,2.8902,0,0,0,0,0,0,2.8021,2.8104,2.8105,2.8216,2.8275,2.8348,2.8402,2.8404,2.8471,2.8466,2.8496,2.8513,2.8612,2.8647,2.8601,2.8768,2.8733,2.8745,2.8741,2.8753,2.8762,2.8751,2.8582,0,0,0,0,0,2.8036,2.8109,2.8177,2.8268,2.8298,2.8345,2.8387,2.8404,2.8465,2.849,2.8536,2.8595,2.8665,2.8711,2.878,2.8889,2.8904,2.8935,2.8944,2.8951,2.8961,2.9019,2.9033,2.8885,2.8885,2.8885,0,0,2.8069,2.8124,2.8167,2.8272,2.8319,2.8392,2.8365,2.8444,2.8497,2.8501,2.8597,2.8633,2.8701,2.8805,2.8853,2.8837,2.9005,2.896,2.8965,2.8971,2.9027,2.9041,2.9054,2.889,2.8889,2.8888,0,0,2.8166,2.8215,2.8296,2.8344,2.8415,2.8446,2.8465,2.8537,2.8561,2.8659,2.8662,2.8726,2.8847,2.8895,2.8934,2.9047,2.9045,2.9068,2.9115,2.9171,2.9182,2.9193,2.9231,2.9245,2.9077,2.9077,2.9078,0,2.8198,2.8308,2.8337,2.8415,2.846,2.8467,2.8548,2.8592,2.8683,2.8713,2.8694,2.8846,2.8892,2.9006,2.9033,2.9066,2.9087,2.9059,2.9179,2.9189,2.92,2.9236,2.9251,2.908,2.9079,2.9079,2.9079,0,2.8342,2.8419,2.8475,2.8562,2.8613,2.8693,2.8731,2.878,2.8791,2.8822,2.892,2.8975,2.9054,2.9082,2.9094,2.9198,2.9185,2.9173,2.9138,2.9215,2.925,2.9265,2.9083,2.9082,2.9081,2.9081,0,0,2.8451,2.8552,2.8572,2.8611,2.869,2.8748,2.8827,2.8905,2.8944,2.9006,2.9071,2.9173,2.9161,2.9206,2.9223,2.9272,2.9355,2.9253,2.9255,2.9269,2.947,2.9478,2.9494,2.9355,2.9358,2.936,2.9464,0,2.8555,2.8696,2.8723,2.8844,2.8913,2.892,2.8988,2.9043,2.9074,2.9136,2.917,2.9241,2.9221,2.9248,2.9297,2.9335,2.9396,2.9328,2.9414,2.9417,2.9396,2.9513,2.9523,2.9618,2.9478,2.948,2.9482,0,2.8696,2.8761,2.8889,2.8956,2.8987,2.9047,2.9119,2.918,2.9241,2.926,2.9309,2.932,2.9399,2.9362,2.9471,2.9424,2.946,2.9484,2.9488,2.9496,2.9453,2.9523,2.9649,2.9663,2.9504,2.9502,2.9501,0,2.876,2.888,2.8971,2.9004,2.9086,2.9128,2.9164,2.9222,2.9266,2.9329,2.9358,2.9429,2.9467,2.9521,2.955,2.952,2.9655,2.9621,2.9672,2.9671,2.9699,2.9697,2.9832,2.9725,2.9725,2.9724,2.9724,0,2.8873,2.8951,2.9001,2.9057,2.9144,2.9173,2.9257,2.9292,2.9344,2.9406,2.9416,2.9473,2.9508,2.957,2.9593,2.9678,2.9696,2.9712,2.9717,2.9711,2.9709,2.9735,2.9728,2.9728,2.9727,2.9727,2.9726,0,2.896,2.8997,2.9097,2.9165,2.9184,2.9245,2.9303,2.9356,2.9387,2.9465,2.9485,2.9532,2.9605,2.9639,2.973,2.9745,2.9842,2.9843,2.9821,2.9823,2.9871,2.9866,3.0027,3.0049,2.9928,2.9929,2.993,0,2.9029,2.9089,2.9163,2.9206,2.9242,2.9311,2.9356,2.9386,2.9432,2.9505,2.955,2.9623,2.9684,2.98,2.9842,2.9911,2.9913,2.9964,2.9923,2.9914,2.9911,2.9907,2.9912,2.9971,2.9972,2.9973,2.9974,0,2.9147,2.9162,2.9227,2.9298,2.9351,2.9408,2.9464,2.9498,2.9537,2.9588,2.9663,2.971,2.9802,2.9874,2.9946,2.9981,2.9983,2.9987,3.0002,2.9996,2.998,2.9988,2.984,2.9983,2.9982,2.9981,2.9981,2.9981,2.9226,2.9279,2.9339,2.941,2.9455,2.9507,2.956,2.9597,2.9661,2.9738,2.9752,2.9831,2.9889,2.9985,3.0022,3.0084,3.0071,3.0094,3.0099,3.0104,3.0106,2.9971,3.0097,3.0097,3.0096,3.0096,3.0096,0,2.9344,2.9382,2.9447,2.9525,2.9581,2.9579,2.964,2.9686,2.9756,2.981,2.9869,2.9954,3.0024,3.0071,3.0141,3.0181,3.0184,3.0198,3.0195,3.0202,3.0114,3.0093,3.0194,3.0194,3.0194,3.0194,3.0194,3.0194,2.9411,2.9499,2.9521,2.9631,2.9669,2.9747,2.9782,2.9828,2.9871,2.9966,3.0024,3.0054,3.0104,3.0178,3.0241,3.0253,3.0277,3.0292,3.0303,3.0219,3.0209,3.0199,3.018,3.0298,3.0298,3.0387,3.0387,3.0388]}]]